Total_Precipitation_Accumulation
1.63 1.64 1.48 1.49 1.52 1.77 2.12 2.43 2.48 2.70 2.79 2.59 2.21 2.00 2.00 1.88 1.89 1.81 1.49 1.55 1.73 1.77 1.75 1.72 1.67 1.63 1.66 1.60 1.39 1.26 1.08 0.95 0.83 0.67 0.50 0.41 0.43 0.38 0.27 0.18 0.11 0.07 0.06
1.45 1.41 1.40 1.47 1.51 1.52 1.69 2.08 2.33 2.54 2.51 2.31 1.92 1.79 1.78 1.81 1.71 1.63 1.44 1.50 1.64 1.52 1.52 1.69 1.80 1.83 1.81 1.74 1.58 1.43 1.24 1.07 0.89 0.68 0.58 0.54 0.40 0.36 0.36 0.27 0.17 0.10 0.05
1.18 1.19 1.21 1.19 1.25 1.27 1.31 1.46 1.69 1.85 1.83 1.77 1.72 1.76 1.73 1.66 1.53 1.47 1.48 1.43 1.34 1.39 1.42 1.51 1.62 1.72 1.86 1.96 1.88 1.68 1.44 1.22 0.99 0.76 0.58 0.47 0.40 0.30 0.23 0.24 0.24 0.18 0.09
0.74 0.77 0.77 0.75 0.76 0.77 0.83 0.96 1.08 1.20 1.33 1.48 1.60 1.60 1.61 1.59 1.51 1.46 1.41 1.38 1.36 1.21 1.38 1.46 1.46 1.51 1.69 1.87 1.95 2.05 1.84 1.49 1.21 0.99 0.76 0.54 0.43 0.35 0.25 0.21 0.24 0.24 0.16
0.53 0.59 0.58 0.57 0.49 0.49 0.54 0.56 0.71 0.82 0.95 1.06 1.05 1.15 1.16 1.10 1.09 1.06 1.08 0.99 1.10 1.07 1.14 1.25 1.32 1.30 1.48 1.77 2.08 2.33 2.24 1.83 1.45 1.20 1.05 0.84 0.67 0.50 0.36 0.28 0.24 0.22 0.18
0.46 0.53 0.49 0.44 0.37 0.38 0.44 0.51 0.60 0.62 0.63 0.68 0.61 0.69 0.71 0.64 0.68 0.69 0.64 0.67 0.74 0.73 0.79 0.93 1.00 0.91 1.18 1.56 1.91 2.20 2.29 2.14 1.80 1.47 1.37 1.24 1.10 0.82 0.58 0.44 0.34 0.28 0.21
0.44 0.51 0.41 0.42 0.39 0.35 0.39 0.41 0.46 0.47 0.44 0.42 0.49 0.54 0.45 0.39 0.40 0.38 0.39 0.45 0.51 0.61 0.71 0.85 0.87 0.87 0.83 0.94 1.10 1.45 1.85 2.16 2.15 1.81 1.59 1.49 1.40 1.12 0.73 0.60 0.53 0.40 0.32
0.35 0.39 0.46 0.36 0.35 0.36 0.37 0.37 0.41 0.39 0.33 0.35 0.44 0.48 0.45 0.45 0.41 0.24 0.33 0.38 0.42 0.55 0.63 0.68 0.75 0.83 0.74 0.78 0.55 0.71 1.18 1.56 1.96 1.96 1.69 1.52 1.51 1.30 0.91 0.72 0.63 0.55 0.46
0.30 0.32 0.34 0.34 0.36 0.31 0.36 0.44 0.41 0.39 0.32 0.27 0.32 0.40 0.41 0.40 0.41 0.37 0.35 0.35 0.41 0.55 0.60 0.67 0.68 0.72 0.75 0.83 0.80 0.62 0.80 0.93 1.39 1.88 1.95 1.63 1.37 1.22 1.09 0.97 0.81 0.61 0.52
0.27 0.24 0.22 0.26 0.32 0.32 0.41 0.33 0.35 0.39 0.37 0.28 0.26 0.27 0.26 0.28 0.34 0.40 0.39 0.34 0.37 0.45 0.46 0.45 0.50 0.61 0.65 0.65 0.67 0.50 0.42 0.53 0.93 1.48 1.80 1.81 1.57 1.32 1.15 1.12 1.16 1.01 0.73
0.32 0.26 0.23 0.24 0.24 0.26 0.32 0.34 0.41 0.38 0.38 0.34 0.26 0.23 0.23 0.21 0.21 0.23 0.32 0.35 0.33 0.26 0.25 0.30 0.36 0.49 0.52 0.52 0.62 0.50 0.35 0.42 0.59 0.89 1.22 1.49 1.58 1.43 1.24 1.25 1.52 1.65 1.44
0.38 0.35 0.32 0.32 0.32 0.27 0.24 0.26 0.30 0.37 0.42 0.43 0.34 0.25 0.27 0.24 0.19 0.19 0.16 0.19 0.26 0.19 0.18 0.20 0.28 0.38 0.43 0.49 0.50 0.41 0.42 0.49 0.56 0.64 0.76 0.94 1.15 1.21 1.16 1.20 1.44 1.78 1.95
0.38 0.38 0.36 0.37 0.38 0.37 0.32 0.27 0.23 0.27 0.35 0.40 0.38 0.32 0.25 0.19 0.20 0.22 0.19 0.13 0.14 0.13 0.17 0.17 0.23 0.28 0.29 0.47 0.61 0.62 0.54 0.56 0.55 0.56 0.62 0.66 0.78 0.94 0.95 0.98 1.16 1.46 1.78
0.41 0.38 0.36 0.34 0.35 0.38 0.39 0.36 0.30 0.28 0.29 0.32 0.34 0.39 0.33 0.17 0.17 0.22 0.23 0.23 0.22 0.18 0.22 0.22 0.31 0.34 0.33 0.40 0.54 0.65 0.59 0.53 0.46 0.44 0.46 0.48 0.52 0.62 0.73 0.77 0.83 0.94 1.12
0.48 0.43 0.37 0.35 0.36 0.37 0.39 0.40 0.39 0.37 0.34 0.30 0.33 0.40 0.38 0.27 0.19 0.17 0.22 0.28 0.33 0.29 0.26 0.30 0.43 0.48 0.40 0.41 0.45 0.44 0.54 0.53 0.46 0.41 0.35 0.36 0.38 0.40 0.45 0.52 0.58 0.60 0.62
0.38 0.40 0.40 0.37 0.34 0.37 0.40 0.43 0.47 0.52 0.52 0.46 0.40 0.42 0.43 0.39 0.35 0.27 0.25 0.28 0.33 0.35 0.32 0.28 0.42 0.50 0.53 0.44 0.48 0.51 0.53 0.51 0.44 0.40 0.35 0.32 0.33 0.35 0.35 0.37 0.41 0.47 0.48
0.41 0.38 0.39 0.36 0.32 0.32 0.35 0.38 0.42 0.53 0.65 0.72 0.66 0.58 0.53 0.52 0.50 0.43 0.39 0.36 0.36 0.39 0.44 0.44 0.52 0.64 0.68 0.59 0.60 0.56 0.51 0.53 0.45 0.43 0.39 0.36 0.32 0.31 0.34 0.34 0.34 0.35 0.39
0.58 0.53 0.48 0.44 0.38 0.32 0.33 0.35 0.38 0.43 0.57 0.73 0.87 0.88 0.76 0.67 0.63 0.54 0.49 0.46 0.45 0.49 0.53 0.62 0.67 0.74 0.76 0.76 0.72 0.57 0.46 0.45 0.48 0.49 0.43 0.40 0.39 0.36 0.33 0.31 0.31 0.29 0.30
0.68 0.68 0.65 0.61 0.56 0.50 0.46 0.45 0.44 0.43 0.46 0.55 0.70 0.88 0.94 0.89 0.76 0.69 0.62 0.55 0.53 0.51 0.55 0.59 0.67 0.84 0.94 0.94 0.76 0.51 0.42 0.46 0.43 0.53 0.52 0.42 0.38 0.36 0.33 0.30 0.27 0.25 0.24
0.81 0.82 0.85 0.77 0.67 0.61 0.58 0.59 0.58 0.57 0.58 0.58 0.60 0.66 0.79 0.93 0.89 0.81 0.73 0.68 0.65 0.67 0.68 0.67 0.72 0.88 1.06 1.11 0.90 0.62 0.51 0.49 0.46 0.40 0.43 0.40 0.37 0.34 0.32 0.29 0.26 0.25 0.24
1.10 1.10 1.04 0.96 0.89 0.82 0.74 0.80 0.88 0.86 0.86 0.75 0.66 0.61 0.60 0.69 0.79 0.82 0.74 0.70 0.72 0.73 0.73 0.72 0.76 0.91 1.07 1.16 0.94 0.70 0.55 0.50 0.46 0.41 0.37 0.32 0.30 0.30 0.31 0.33 0.32 0.28 0.25
1.34 1.26 1.19 1.17 1.12 0.99 1.00 0.96 0.91 0.90 0.96 0.94 0.83 0.73 0.63 0.57 0.59 0.66 0.72 0.73 0.73 0.71 0.72 0.74 0.76 0.88 1.00 1.04 1.07 0.89 0.68 0.50 0.41 0.39 0.41 0.36 0.34 0.33 0.29 0.26 0.32 0.32 0.29
1.32 1.24 1.25 1.27 1.22 1.17 1.03 0.84 0.71 0.71 0.76 0.80 0.83 0.79 0.60 0.47 0.52 0.56 0.65 0.66 0.64 0.59 0.58 0.64 0.69 0.78 1.04 1.20 1.31 1.05 0.84 0.72 0.57 0.50 0.47 0.41 0.40 0.37 0.31 0.29 0.36 0.33 0.30
1.21 1.17 1.13 1.03 0.96 0.86 0.76 0.64 0.58 0.61 0.64 0.62 0.70 0.77 0.71 0.61 0.55 0.57 0.56 0.52 0.51 0.49 0.45 0.44 0.51 0.67 0.92 1.27 1.46 1.43 1.31 1.10 0.93 0.73 0.59 0.47 0.40 0.36 0.34 0.31 0.36 0.36 0.32
1.02 0.92 0.85 0.82 0.80 0.78 0.76 0.60 0.53 0.57 0.62 0.58 0.59 0.62 0.65 0.60 0.52 0.43 0.44 0.41 0.39 0.39 0.36 0.36 0.40 0.57 0.75 1.01 1.36 1.52 1.44 1.22 0.99 0.74 0.56 0.45 0.38 0.35 0.32 0.29 0.31 0.36 0.34
0.84 0.79 0.74 0.71 0.72 0.73 0.72 0.55 0.48 0.54 0.59 0.58 0.60 0.64 0.68 0.60 0.47 0.35 0.39 0.43 0.37 0.32 0.34 0.35 0.37 0.43 0.55 0.73 1.04 1.20 1.17 1.10 0.92 0.72 0.49 0.43 0.36 0.39 0.34 0.27 0.23 0.24 0.26